Regional Weather Roundup
Issued by NWS

Home | Current Version | Previous Version | Text Only | Print | Product List | Glossary Off
Versions: 1 2 3 4 5 6 7 8 9 10 11 12 13 14 15 16 17 18 19 20 21 22 23 24 25 26 27 28 29 30 31 32 33 34 35 36 37 38 39 40 41 42 43 44 45 46 47 48 49 50

000
ASUS43 KOAX 310402
RWRNE

WEATHER ROUNDUP FOR NEBRASKA
NATIONAL WEATHER SERVICE OMAHA NE
1100 PM CDT SUN AUG 30 2015

NOTES: SATELLITE DATA IS BEING USED TO AUGMENT CLOUD COVER ABOVE
       12000 FEET.
       "FAIR" INDICATES FEW OR NO CLOUDS BELOW 12,000 FEET WITH NO
       SIGNIFICANT WEATHER AND/OR OBSTRUCTIONS TO VISIBILITY.

  * THESE STATIONS DO NOT REPORT WEATHER SUCH AS RAIN...SNOW OR FOG.

NEZ001>004-019>022-054>056-310500-
NEBRASKA PANHANDLE

CITY           SKY/WX    TMP DP  RH WIND       PRES   REMARKS
SCOTTSBLUFF    MOCLDY    77  51  40 CALM      29.87R
ALLIANCE       PTCLDY    77  47  34 S14       29.87R
CHADRON        MOCLDY    78  47  33 CALM      29.81R
SIDNEY         CLEAR     76  49  38 S13       29.95R
$$

NEZ057>060-069>072-079>082-310500-
SOUTHWEST NEBRASKA

CITY           SKY/WX    TMP DP  RH WIND       PRES   REMARKS
NORTH PLATTE   CLEAR     71  58  63 SE12      29.91S
IMPERIAL       CLEAR     74  38  27 S14       29.93R
MCCOOK         CLEAR     70  49  47 SE10      29.94R
$$

NEZ005>010-023>029-035>040-094-310500-
NORTH CENTRAL NEBRASKA

CITY           SKY/WX    TMP DP  RH WIND       PRES   REMARKS
VALENTINE      CLEAR     76  58  53 S23G31    29.82R
AINSWORTH      CLEAR     72  61  68 S16G24    29.85S
BROKEN BOW     CLEAR     69  62  78 S10G23    29.93S
ORD            CLEAR     67  63  87 S8G17     29.91S
$$

NEZ041-046>049-061>064-073>077-083>087-310500-
SOUTH CENTRAL NEBRASKA

CITY           SKY/WX    TMP DP  RH WIND       PRES   REMARKS
GRAND ISLAND   CLEAR     68  64  87 S16       29.96S
AURORA         CLEAR     67  66  96 S9        29.96F
HASTINGS       CLEAR     67  64  90 S8        29.96F
KEARNEY *      CLEAR     66  61  82 S13       29.95S
YORK           MOCLDY    64  64 100 S7        29.97S
$$

NEZ011>018-030>034-042>045-310500-
NORTHEAST NEBRASKA

CITY           SKY/WX    TMP DP  RH WIND       PRES   REMARKS
NORFOLK        CLEAR     68  65  90 S16       29.93S
COLUMBUS *     CLEAR    N/A N/A N/A S6        29.96R
TEKAMAH        CLEAR     64  63  96 S5        29.95F FOG
$$

NEZ050>053-065>068-078-088>093-310500-
SOUTHEAST NEBRASKA

CITY           SKY/WX    TMP DP  RH WIND       PRES   REMARKS
LINCOLN        CLEAR     67  65  93 S5        29.98S
OMAHA EPPLEY   PTCLDY    68  66  93 SE6       29.97S
FALLS CITY     CLEAR     70  68  93 CALM      29.96F
$$

NEZ044-045-051>053-067-310500-
OMAHA AREA

CITY           SKY/WX    TMP DP  RH WIND       PRES   REMARKS
OMAHA EPPLEY   PTCLDY    68  66  93 SE6       29.97S
OFFUTT AFB     CLEAR     62  62 100 CALM      29.96F
$$



USA.gov is the U.S. government's official web portal to all federal, state and local government web resources and services.